Location: La Fredeussais
(48.1780°N, 1.3980°W)
Time: 16:44:30
(UTC+00:00)

USA 245 - Pass Details

Date: 09 May 2021
Orbit: 265 x 982 km, 97.9° (Epoch: 18 June)

Event Time Altitude Azimuth Distance (km) Brightness Sun altitude
Exits shadow 20:46:07 22° 114° (ESE) 666 3.2 -11.1°
Maximum altitude 20:46:59 30° 72° (ENE) 521 3.0 -11.2°
Drops below altitude 10° 20:49:00 10° 7° (N) 1,083 5.4 -11.4°
Sets 20:50:54 0° 355° (N) 1,916 6.9 -11.6°
